DW5499 Weather Reports


Display with metric or nautical units.
time (UTC)temp
F
wind
direction
speed
MPH
gust
MPH
rain 1hr
in
rain 24hr
in
rain mn
in
humidity
%
barometer
mb
20260831060050 87 147 4.0 7.0 0.00 0.00 0.00 48 1010.5
20260831054549 87 146 4.0 9.0 0.00 0.00 0.00 48 1010.4
20260831053048 87 159 5.0 9.0 0.00 0.00 0.00 48 1010.3
20260831051546 88 174 4.0 12.0 0.00 0.00 0.00 48 1010.2
20260831050044 88 136 5.0 10.0 0.00 0.00 0.00 47 1010.2
20260831044544 88 160 6.0 15.0 0.00 0.00 0.00 47 1010.0
20260831043045 88 180 7.0 16.0 0.00 0.00 0.00 47 1010.0
20260831041551 89 194 10.0 17.0 0.00 0.00 0.00 47 1010.0
20260831040042 89 172 7.0 13.0 0.00 0.00 0.00 46 1010.0
20260831034541 89 179 8.0 16.0 0.00 0.00 0.00 46 1009.9
20260831033042 90 199 6.0 12.0 0.00 0.00 0.00 46 1010.0
20260831031541 90 170 6.0 11.0 0.00 0.00 0.00 46 1009.9
20260831030040 90 211 5.0 10.0 0.00 0.00 0.00 46 1009.9
20260831024542 90 159 5.0 13.0 0.00 0.00 0.00 45 1009.8
20260831023038 90 180 7.0 12.0 0.00 0.00 0.00 45 1009.7
20260831021539 91 161 4.0 10.0 0.00 0.00 0.00 46 1009.5
20260831020038 92 156 4.0 9.0 0.00 0.00 0.00 45 1009.3
20260831014539 92 178 4.0 9.0 0.00 0.00 0.00 45 1009.1
20260831013038 93 161 4.0 8.0 0.00 0.00 0.00 45 1008.9
20260831011538 93 162 2.0 7.0 0.00 0.00 0.00 44 1008.8
20260831010041 94 150 3.0 8.0 0.00 0.00 0.00 44 1008.7
20260831004536 95 152 5.0 10.0 0.00 0.00 0.00 43 1008.6
20260831003035 96 168 3.0 9.0 0.00 0.00 0.00 43 1008.6
20260831001535 97 155 3.0 10.0 0.00 0.00 0.00 41 1008.6
20260831000035 98 158 6.0 12.0 0.00 0.00 0.00 40 1008.6
20260830234551 99 134 4.0 10.0 0.00 0.00 0.00 39 1008.5
20260830233034 99 174 5.0 11.0 0.00 0.00 0.00 40 1008.4
20260830231534 99 137 5.0 14.0 0.00 0.00 0.00 40 1008.4
20260830230033 100 191 6.0 13.0 0.00 0.00 0.00 40 1008.2
20260830224533 100 172 8.0 12.0 0.00 0.00 0.00 40 1008.2
20260830223036 100 168 7.0 18.0 0.00 0.00 0.00 40 1008.3
20260830221534 100 118 4.0 16.0 0.00 0.00 0.00 40 1008.4
20260830220029 100 81 4.0 13.0 0.00 0.00 0.00 40 1008.5
20260830214527 99 176 7.0 19.0 0.00 0.00 0.00 40 1008.5
20260830213024 99 186 8.0 20.0 0.00 0.00 0.00 41 1008.6
20260830211523 99 188 9.0 19.0 0.00 0.00 0.00 40 1008.6
20260830210021 99 135 10.0 20.0 0.00 0.00 0.00 41 1008.9
20260830204519 98 141 11.0 22.0 0.00 0.00 0.00 41 1009.1
20260830203037 98 201 9.0 20.0 0.00 0.00 0.00 43 1009.2
20260830201515 97 159 9.0 19.0 0.00 0.00 0.00 42 1009.4
20260830200017 97 213 5.0 17.0 0.00 0.00 0.00 44 1009.7
20260830194511 97 237 10.0 15.0 0.00 0.00 0.00 44 1009.8
20260830193009 96 187 8.0 18.0 0.00 0.00 0.00 46 1009.9
20260830191509 95 181 10.0 18.0 0.00 0.00 0.00 47 1010.1
20260830190003 94 197 12.0 22.0 0.00 0.00 0.00 47 1010.1
20260830184601 94 180 8.0 19.0 0.00 0.00 0.00 47 1010.3
20260830183057 93 165 13.0 22.0 0.00 0.00 0.00 48 1010.5
20260830181559 93 204 7.0 17.0 0.00 0.00 0.00 49 1010.6
20260830180055 91 237 13.0 20.0 0.00 0.00 0.00 50 1010.8
20260830174605 92 170 7.0 18.0 0.00 0.00 0.00 50 1010.8
20260830173108 91 193 9.0 20.0 0.00 0.00 0.00 50 1010.8
20260830171547 90 209 7.0 19.0 0.00 0.00 0.00 51 1011.0
20260830170044 89 166 8.0 19.0 0.00 0.00 0.00 53 1011.2
20260830164542 88 172 6.0 26.0 0.00 0.00 0.00 54 1011.3
20260830163041 87 163 11.0 22.0 0.00 0.00 0.00 54 1011.4
20260830161538 86 174 8.0 16.0 0.00 0.00 0.00 56 1011.5
20260830160036 86 176 10.0 21.0 0.00 0.00 0.00 56 1011.4
20260830154535 85 168 6.0 17.0 0.00 0.00 0.00 56 1011.4
20260830153034 84 197 9.0 18.0 0.00 0.00 0.00 57 1011.5
20260830151533 84 147 8.0 15.0 0.00 0.00 0.00 56 1011.3
20260830150036 84 168 9.0 17.0 0.00 0.00 0.00 56 1011.2
20260830144537 83 180 7.0 16.0 0.00 0.00 0.00 57 1011.2
20260830143038 82 137 5.0 14.0 0.00 0.00 0.00 58 1011.0
20260830141530 81 149 8.0 18.0 0.00 0.00 0.00 58 1011.2
20260830140029 80 121 8.0 16.0 0.00 0.00 0.00 59 1011.3
20260830134531 79 174 7.0 17.0 0.00 0.00 0.00 60 1011.3
20260830133028 80 174 8.0 17.0 0.00 0.00 0.00 60 1011.3
20260830131533 79 134 9.0 19.0 0.00 0.00 0.00 60 1011.5
20260830130027 79 159 11.0 18.0 0.00 0.00 0.00 60 1011.5
20260830124532 78 158 6.0 15.0 0.00 0.00 0.00 60 1011.6
20260830123023 78 181 4.0 11.0 0.00 0.00 0.00 60 1011.6
20260830121523 78 211 9.0 17.0 0.00 0.00 0.00 59 1011.7
20260830120025 78 164 6.0 16.0 0.00 0.00 0.00 59 1011.7
20260830114520 78 180 6.0 14.0 0.00 0.00 0.00 59 1011.7
20260830113019 79 126 6.0 15.0 0.00 0.00 0.00 58 1011.8
20260830111516 79 145 5.0 15.0 0.00 0.00 0.00 58 1011.7
20260830110014 79 155 7.0 15.0 0.00 0.00 0.00 57 1011.8
20260830104512 79 147 6.0 15.0 0.00 0.00 0.00 57 1011.7
20260830103010 79 187 8.0 13.0 0.00 0.00 0.00 57 1011.7
20260830101507 80 172 5.0 15.0 0.00 0.00 0.00 56 1011.6
20260830100016 80 123 5.0 12.0 0.00 0.00 0.00 56 1011.7
20260830094504 80 164 9.0 17.0 0.00 0.00 0.00 56 1011.6
20260830093001 81 166 7.0 11.0 0.00 0.00 0.00 55 1011.5
20260830091501 81 187 7.0 15.0 0.00 0.00 0.00 55 1011.5
20260830084600 81 176 6.0 12.0 0.00 0.00 0.00 55 1011.6
20260830083059 80 157 7.0 12.0 0.00 0.00 0.00 56 1011.5
20260830081557 81 176 5.0 10.0 0.00 0.00 0.00 56 1011.5
20260830080056 81 152 4.0 12.0 0.00 0.00 0.00 56 1011.3
20260830074555 82 178 4.0 9.0 0.00 0.00 0.00 55 1011.3
20260830073101 82 147 4.0 12.0 0.00 0.00 0.00 55 1011.3
20260830071616 82 149 3.0 9.0 0.00 0.00 0.00 55 1011.3
20260830070050 82 178 4.0 8.0 0.00 0.00 0.00 55 1011.4
20260830064548 82 118 6.0 12.0 0.00 0.00 0.00 55 1011.5
20260830063047 83 162 5.0 11.0 0.00 0.00 0.00 55 1011.4
20260830061545 83 173 5.0 10.0 0.00 0.00 0.00 55 1011.5